Dewpoint
55 45 33 26 19 14 10 9 8 13 17 31 42 43 27 44 40 43 64 66 62 63 64 68 70 71 71 71 70 70 69 68 68 68 67 67 67 67 68 68 68 68 67 66 65 64 63 63 63
38 26 24 21 14 7 7 7 8 11 33 46 50 49 46 50 55 59 63 65 63 64 63 68 70 70 70 70 69 69 68 68 68 67 67 67 68 68 68 69 69 68 68 66 65 64 64 64 64
35 27 23 19 13 5 8 10 11 29 35 42 42 50 52 54 57 58 62 66 64 63 62 68 69 69 69 69 68 68 68 67 67 67 68 68 68 68 68 68 69 69 68 66 65 64 64 64 66
30 27 20 8 8 7 9 15 27 30 34 40 41 49 54 56 57 61 64 67 66 64 65 68 68 68 69 68 68 67 67 66 67 67 68 68 68 67 67 67 67 68 68 66 65 64 64 65 65
23 20 13 13 9 8 9 14 30 33 40 43 45 47 54 62 64 64 66 68 67 65 66 67 67 68 68 68 68 67 67 67 67 67 67 67 67 68 67 66 66 66 67 66 64 63 64 65 64
22 17 12 8 6 7 17 30 33 39 42 44 44 49 56 62 62 64 67 67 68 66 67 67 68 68 67 67 67 67 66 67 67 67 67 68 68 67 67 67 66 66 66 66 65 65 64 63 61
21 16 12 8 11 25 32 38 38 38 40 44 49 48 57 60 62 64 65 67 67 67 67 67 66 66 67 66 66 66 66 67 67 67 67 67 66 66 66 66 65 65 65 65 65 64 63 61 61
19 16 11 11 22 32 35 38 42 42 44 51 50 47 51 59 61 62 62 62 65 66 65 66 66 66 66 66 66 66 66 67 67 67 66 65 65 65 65 65 66 65 65 65 64 63 61 59 59
18 15 11 15 16 24 31 35 44 47 46 50 54 57 58 60 61 60 60 60 60 62 63 62 62 62 63 64 65 66 67 66 65 64 63 60 53 54 57 64 65 65 64 64 63 62 61 60 58
18 16 12 17 17 20 24 34 40 42 45 50 54 57 58 59 59 59 58 57 58 59 60 60 59 59 58 60 64 63 62 59 59 57 58 53 58 57 57 62 63 63 62 61 61 60 60 58 46
19 18 16 16 23 23 25 34 40 41 40 48 54 56 57 57 57 57 57 57 57 58 57 58 58 58 57 57 61 61 59 59 59 58 60 61 60 60 60 59 56 57 57 49 49 49 49 50 47
18 19 19 19 21 27 32 37 39 44 49 53 55 56 57 56 55 55 55 55 55 56 56 57 58 57 58 58 58 60 60 60 60 58 60 62 60 62 59 56 55 55 52 52 51 50 52 49 47
21 21 23 26 28 31 37 37 39 46 52 55 56 56 55 55 53 54 55 54 54 54 55 56 56 55 56 57 59 60 58 57 57 58 58 58 59 61 56 55 54 53 53 52 51 50 48 47 46
24 23 28 29 33 37 37 39 41 47 50 52 54 55 56 54 53 53 53 50 52 53 54 55 56 58 57 56 57 57 55 53 55 56 56 56 54 60 55 56 53 53 52 51 50 49 46 43 43
23 25 26 29 32 34 38 37 39 46 49 48 46 49 53 55 53 52 51 49 50 51 54 55 56 56 56 55 56 51 51 50 52 53 60 57 56 61 58 55 54 53 52 52 51 48 45 43 39
21 25 26 28 30 31 40 38 41 44 45 43 43 47 51 52 53 52 52 49 48 49 49 50 50 54 56 54 55 51 54 55 53 55 59 60 58 59 59 55 54 53 53 51 49 45 43 41 38
21 18 25 27 29 31 36 40 41 43 42 41 43 43 44 49 49 51 54 51 50 50 51 49 54 53 57 56 56 53 53 53 49 55 60 60 58 58 58 55 54 54 51 50 48 45 42 40 37
17 16 20 35 29 30 28 29 40 42 42 42 39 38 41 46 48 49 49 51 52 52 51 51 55 57 59 57 58 53 52 55 57 60 60 60 57 57 57 55 55 53 50 49 46 45 42 39 39
20 16 17 26 28 27 28 25 35 42 41 43 43 40 41 43 46 49 48 50 50 52 51 53 54 57 58 56 52 51 51 53 59 62 59 60 57 57 57 55 55 52 49 48 48 45 42 39 42
21 18 17 17 20 23 22 20 24 39 41 41 42 42 40 41 43 48 50 49 51 51 52 52 53 55 57 56 52 50 52 53 55 58 60 59 59 56 56 55 53 52 48 49 48 44 40 42 43
19 19 18 18 22 22 21 18 19 30 39 42 42 42 42 41 41 45 48 50 52 52 54 54 54 56 59 57 53 51 53 56 56 56 56 58 58 55 54 54 52 51 49 48 48 44 44 43 43
19 19 21 21 21 18 21 17 26 23 31 39 42 42 41 42 42 42 47 49 51 53 55 55 55 56 59 60 56 53 52 55 57 57 56 55 56 55 52 52 53 52 49 47 46 42 45 45 43
22 25 23 23 21 21 18 14 21 18 22 28 36 41 41 41 42 43 45 48 51 52 55 56 55 55 56 60 60 55 54 55 58 57 57 57 54 53 53 52 53 51 47 49 48 45 47 45 44
23 26 25 24 23 22 19 17 18 19 18 19 27 35 39 40 41 41 43 47 48 51 55 58 55 54 55 60 60 60 57 58 60 58 56 55 54 53 53 50 53 49 48 49 44 47 46 46 44
25 25 22 20 22 22 19 18 18 30 19 20 22 28 37 39 40 40 41 43 48 51 55 56 55 55 56 58 61 62 61 61 60 59 58 56 55 54 53 51 49 48 47 44 46 47 47 46 41
25 24 24 29 23 18 23 16 15 20 21 22 22 26 28 37 40 39 39 44 47 51 54 55 55 56 57 60 61 61 59 58 60 60 59 57 55 52 50 48 47 46 46 45 47 46 45 44 43
24 23 24 26 26 23 18 18 18 16 17 21 23 31 33 31 37 39 39 40 46 49 54 58 56 57 59 61 61 60 60 59 60 60 59 57 52 48 48 47 45 46 45 46 46 45 43 43 44
25 28 25 25 22 22 17 17 17 19 18 19 19 23 31 34 33 36 39 41 43 47 50 58 58 57 59 61 60 60 59 60 60 59 58 55 51 49 48 47 45 46 45 43 44 40 41 41 41
26 27 26 25 25 25 23 18 22 21 21 19 21 23 26 29 37 39 40 40 43 46 49 53 57 57 59 60 60 57 57 58 59 59 57 53 51 49 48 46 45 44 44 44 41 40 39 38 41
24 25 26 29 24 27 28 23 23 23 23 24 24 25 26 30 33 40 43 45 46 47 48 52 56 57 57 60 57 56 58 58 59 58 57 55 53 51 50 46 44 44 42 40 38 37 36 35 38
Lifted_Index
4 3 3 3 2 1 0 -0 -0 -0 -0 -2 -3 -4 -4 -4 -4 -4 -5 -6 -5 -5 -5 -6 -6 -6 -5 -5 -4 -3 -2 -2 -1 -1 -1 -0 -0 -0 -1 -1 -2 -2 -1 -1 0 1 1 1 1
4 4 3 3 2 1 0 -0 -0 -0 -1 -3 -4 -5 -5 -5 -4 -5 -5 -5 -5 -4 -4 -5 -6 -5 -5 -4 -3 -3 -2 -2 -1 -1 -1 -0 -1 -1 -1 -2 -2 -2 -2 -1 0 1 1 0 0
4 3 3 2 1 0 -0 -0 -1 -1 -2 -3 -5 -5 -5 -4 -4 -4 -5 -5 -4 -4 -4 -4 -5 -5 -4 -4 -3 -2 -2 -2 -1 -1 -1 -1 -1 -1 -2 -2 -3 -3 -2 -1 -0 0 0 -0 -0
3 3 2 1 0 -0 -0 -1 -1 -2 -3 -4 -4 -5 -5 -4 -3 -4 -5 -5 -4 -3 -3 -4 -4 -4 -4 -3 -3 -2 -2 -1 -1 -2 -2 -2 -2 -2 -2 -2 -2 -2 -2 -1 -1 -0 -0 -0 -0
2 2 1 0 -0 -0 -0 -1 -2 -3 -3 -4 -5 -4 -5 -5 -4 -4 -5 -6 -5 -3 -3 -3 -4 -4 -4 -3 -3 -2 -2 -1 -1 -2 -2 -2 -2 -2 -2 -1 -1 -1 -1 -1 -1 -0 -0 0 0
2 1 1 -0 -0 -1 -1 -2 -3 -4 -4 -5 -5 -5 -5 -5 -5 -6 -6 -6 -5 -4 -3 -3 -3 -3 -3 -3 -2 -2 -1 -1 -2 -2 -2 -2 -2 -2 -2 -1 -0 -1 -1 -1 -1 -1 -0 1 1
2 1 0 -0 -0 -1 -2 -3 -4 -5 -5 -6 -6 -5 -5 -5 -5 -6 -6 -6 -5 -4 -3 -2 -2 -2 -2 -2 -1 -1 -1 -1 -2 -2 -2 -1 -1 -1 -1 -0 -0 -0 -1 -1 -1 -0 1 2 2
2 1 0 -0 -0 -1 -2 -4 -5 -5 -6 -6 -6 -6 -5 -5 -5 -5 -5 -5 -4 -3 -2 -1 -1 -1 -1 -1 -1 -1 -1 -1 -1 -1 0 1 1 1 1 0 -0 -1 -1 -1 -0 1 2 3 4
2 1 0 -0 -0 -1 -2 -4 -5 -5 -6 -6 -6 -5 -5 -4 -4 -4 -4 -4 -4 -3 -2 -1 -0 0 0 -0 -0 -1 -1 -0 0 1 2 3 3 2 1 0 -1 -1 -0 0 1 2 3 4 4
1 1 0 -0 -0 -0 -1 -3 -4 -4 -5 -5 -5 -5 -4 -4 -4 -4 -3 -3 -3 -3 -2 -1 1 2 2 2 1 0 0 1 2 3 3 3 3 2 1 0 -1 0 1 2 2 3 4 4 5
1 0 0 -0 -0 -0 -1 -3 -3 -4 -4 -5 -4 -4 -3 -3 -3 -2 -2 -2 -2 -2 -1 0 1 3 4 4 3 2 2 2 2 3 3 2 2 1 1 0 0 1 2 3 3 4 4 4 5
1 1 0 -0 -0 -1 -2 -3 -3 -4 -4 -4 -4 -3 -3 -2 -2 -1 -1 -0 -0 -0 0 1 3 4 5 5 5 4 3 3 3 3 2 2 1 1 0 -0 0 1 2 3 3 3 4 5 5
1 1 -0 -1 -1 -2 -2 -3 -3 -4 -4 -4 -3 -2 -2 -1 -0 0 1 1 1 1 2 4 5 5 6 6 6 5 4 4 3 3 2 2 1 -0 -1 -0 0 1 2 2 3 3 4 5 6
2 1 -0 -1 -2 -2 -3 -3 -3 -4 -4 -3 -2 -1 -1 -0 1 1 1 2 2 3 4 5 6 6 6 6 6 6 5 4 4 3 2 1 0 -1 -1 -0 0 1 2 2 3 4 5 6 6
2 1 -1 -1 -2 -2 -2 -3 -3 -4 -4 -3 -2 -1 0 1 1 1 2 3 3 4 5 6 7 6 6 6 5 5 4 4 3 2 1 -0 -1 -1 -1 -0 0 1 2 2 3 4 5 7 7
1 0 -1 -1 -1 -2 -2 -2 -2 -3 -3 -3 -2 -1 -0 -0 -0 0 1 2 3 4 5 6 6 5 5 4 4 4 3 2 2 1 -1 -1 -2 -2 -1 -0 0 1 2 3 4 5 6 7 8
0 -0 -1 -1 -1 -1 -1 -1 -2 -2 -3 -3 -2 -2 -1 -1 -1 -1 -0 1 2 3 3 4 4 3 2 2 2 2 2 1 1 -0 -2 -2 -2 -2 -1 -0 0 1 2 3 4 6 7 8 8
-0 -0 -1 -1 -1 -1 -1 -1 -2 -2 -3 -3 -2 -1 -1 -2 -2 -1 -0 0 1 2 2 2 2 1 0 0 1 1 1 0 -1 -2 -3 -2 -2 -1 -1 -0 0 1 2 4 5 6 7 8 7
-0 -0 -0 -0 -0 -1 -1 -1 -2 -3 -3 -3 -2 -2 -1 -1 -2 -1 -1 0 0 1 2 2 1 0 -1 -1 0 1 1 -0 -2 -3 -3 -3 -2 -1 -1 0 1 2 3 4 5 7 7 7 7
-1 -1 -0 -0 0 0 -0 -1 -1 -3 -3 -3 -3 -3 -2 -2 -2 -2 -1 -0 -0 0 0 0 0 -1 -2 -1 -0 0 0 -1 -2 -2 -3 -3 -2 -1 -0 0 1 2 3 4 6 7 7 7 6
-1 -1 -0 -0 0 0 0 -0 -1 -2 -3 -3 -3 -3 -3 -2 -2 -2 -2 -1 -1 -1 -1 -1 -1 -2 -2 -2 -1 -1 -1 -1 -2 -2 -2 -2 -1 -1 0 1 2 3 4 5 6 7 7 6 5
-0 -0 -0 -0 -0 -0 -0 0 -0 -1 -2 -3 -3 -3 -3 -2 -2 -2 -2 -2 -2 -2 -2 -2 -2 -2 -3 -3 -3 -2 -2 -2 -2 -2 -2 -1 -1 -0 1 1 2 3 4 5 6 7 6 6 5
-0 -0 -0 -1 -1 -1 -0 -0 0 -0 -1 -2 -2 -3 -2 -2 -2 -2 -2 -2 -2 -2 -2 -3 -3 -3 -3 -4 -4 -3 -2 -3 -3 -2 -2 -1 -0 0 1 1 2 3 4 5 6 7 6 6 5
-0 -1 -1 -1 -1 -1 -0 -0 0 0 -0 -1 -1 -2 -2 -2 -2 -2 -2 -3 -3 -3 -3 -3 -3 -3 -4 -4 -4 -4 -3 -3 -3 -2 -1 -1 -0 -0 0 1 1 2 4 6 6 7 6 6 6
-0 -1 -1 -1 -1 -1 -0 -0 -0 -0 0 0 -0 -1 -2 -2 -2 -2 -2 -3 -3 -4 -4 -4 -4 -4 -4 -4 -5 -4 -3 -3 -3 -2 -2 -1 -1 -1 -0 0 1 2 4 6 6 7 6 6 6
-0 -1 -1 -1 -1 -1 -0 0 0 0 0 1 0 -0 -1 -2 -2 -2 -2 -3 -4 -4 -5 -5 -5 -4 -4 -4 -4 -3 -2 -2 -3 -3 -2 -1 -1 -1 -1 -0 1 2 4 6 6 6 6 7 7
-0 -1 -1 -1 -1 -1 -0 -0 0 1 1 1 1 -0 -1 -1 -2 -2 -2 -3 -4 -4 -5 -6 -6 -5 -5 -5 -4 -3 -3 -3 -3 -3 -2 -1 -1 -1 -1 -0 1 2 4 5 6 7 7 8 9
-0 -1 -1 -1 -1 -1 -1 -0 0 0 1 1 1 0 -0 -1 -2 -2 -3 -3 -3 -4 -5 -6 -6 -6 -5 -5 -4 -3 -3 -3 -3 -2 -2 -1 -1 -1 -1 -0 1 2 3 5 6 8 8 9 9
-0 -1 -1 -1 -1 -1 -1 -0 -0 0 0 1 1 1 0 -1 -2 -2 -3 -3 -3 -4 -5 -6 -6 -6 -6 -5 -4 -3 -3 -3 -2 -2 -2 -1 -1 -1 -0 1 1 2 3 5 7 8 9 9 9
-0 -1 -1 -2 -1 -1 -1 -0 -0 0 1 1 1 1 0 -0 -2 -3 -3 -3 -3 -4 -4 -5 -6 -6 -6 -5 -4 -3 -3 -3 -2 -2 -2 -1 -1 -0 0 1 2 3 4 6 7 8 9 9 9